Location: Fenton
(44.3980°N, 108.5746°W)
Time: 21:16:02
(UTC+00:00)

S-56A Canister/Altair - Visible Passes

Search period start: 27 May 2022 00:00
Search period end: 06 June 2022 00:00
Orbit: 634 x 2499 km, 38.9° (Epoch: 26 May)

Date Brightness Start Highest point End Pass type
(mag) Time Alt. Az. Time Alt. Az. Time Alt. Az.
27 May 10.0 03:57:24 10° W 04:12:19 68° S 04:25:23 11° ESE visible
27 May 10.0 06:04:11 10° W 06:17:51 45° SSW 06:22:44 33° S visible
27 May 10.8 08:13:56 10° W 08:20:06 16° WSW 08:20:06 16° WSW visible
28 May 10.1 03:24:00 10° W 03:38:46 70° S 03:52:36 10° ESE visible
28 May 10.1 05:30:30 10° W 05:44:35 49° SSW 05:51:10 30° SSE visible
28 May 10.6 07:39:21 10° W 07:48:17 20° SW 07:48:32 20° SW visible
29 May 10.1 04:56:54 10° W 05:11:15 52° SSW 05:19:38 25° SE visible
29 May 10.5 07:05:05 10° W 07:15:21 24° SW 07:17:01 23° SW visible
30 May 10.1 04:23:24 10° W 04:37:51 56° SSW 04:48:10 19° SE visible
30 May 10.4 06:31:00 10° W 06:42:21 28° SW 06:45:32 25° SSW visible
31 May 10.2 03:49:58 10° W 04:04:23 59° SSW 04:16:43 14° SE visible
31 May 10.4 05:57:06 10° W 06:09:16 31° SW 06:14:06 26° SSW visible
01 Jun 10.2 03:16:39 10° W 03:30:53 62° SSW 03:44:56 10° ESE visible
01 Jun 10.5 05:23:20 10° W 05:36:05 35° SW 05:42:42 24° S visible
02 Jun 10.5 04:49:42 10° W 05:02:51 39° SW 05:11:21 21° SSE visible
02 Jun 11.1 07:00:58 10° WSW 07:06:19 13° SW 07:08:44 12° SW visible
03 Jun 10.5 04:16:11 10° W 04:29:31 42° SW 04:40:03 17° SSE visible
03 Jun 11.0 06:25:49 10° W 06:33:22 16° SW 06:37:26 14° SW visible
04 Jun 10.5 03:42:48 10° W 03:56:09 46° SSW 04:08:47 12° SSE visible
04 Jun 11.0 05:51:19 10° W 06:00:21 19° SW 06:06:11 15° SSW visible
05 Jun 10.5 03:09:31 10° W 03:22:45 49° SSW 03:36:33 10° SE visible
05 Jun 11.0 05:17:11 10° W 05:27:17 22° SW 05:34:58 14° SSW visible
